Regional Weather Roundup
Issued by NWS State College, PA

Home | Current Version | Previous Version | Text Only | Print | Product List | Glossary On
Versions: 1 2 3 4 5 6 7 8 9 10 11 12 13 14 15 16 17 18 19 20 21 22 23 24 25 26 27 28 29 30 31 32 33 34 35 36 37 38 39 40 41 42 43 44 45 46 47 48 49 50
000
ASUS41 KCTP 201110
RWRCTP

REGIONAL WEATHER ROUNDUP
NATIONAL WEATHER SERVICE STATE COLLEGE PA
600 AM EST SAT DEC 20 2014

Note: "fair" indicates few or no clouds below 12,000 feet with no
significant weather and/or obstructions to visibility.

* = STATION THAT DOES NOT REPORT PRECIPITATION /E.G. RAIN...SNOW...ETC/
    THUNDER OR FOG.

PAZ002>004-007>009-013>016-020>023-029>032-201200-
WESTERN PENNSYLVANIA

CITY           SKY/WX    TMP DP  RH WIND       PRES   REMARKS
ERIE           CLOUDY    30  19  63 NW5       30.29R
MEADVILLE      CLOUDY    27  19  72 W5        30.24R
FRANKLIN*      CLOUDY    25  18  74 NW5       30.25R
NEW CASTLE       N/A     26  20  78 CALM      30.29R
BEAVER COUNTY  NOT AVBL
BUTLER*        CLOUDY    25  18  74 SW3       30.28R
PITTSBURGH INT CLOUDY    28  20  71 CALM      30.27R
PITTSBURGH     CLOUDY    27  17  66 CALM      30.26R
INDIANA*       CLOUDY    25  19  80 CALM      30.28R
LATROBE        CLOUDY    23  19  86 CALM      30.29R
WASHINGTON CO* NOT AVBL
$$

PAZ004>006-010>012-017>019-024>028-033>037-041-042-045-046-049>053-201200-
CENTRAL PENNSYLVANIA

CITY           SKY/WX    TMP DP  RH WIND       PRES   REMARKS
BRADFORD       CLOUDY    21  17  84 NW5       30.19R WCI  15
DUBOIS         CLOUDY    23  18  81 N3        30.20R
CLEARFIELD     CLOUDY    24  17  74 NW8       30.23R
JOHNSTOWN      CLOUDY    20  15  81 W5        30.17R WCI  13
ALTOONA        PTCLDY    23  18  81 N3        30.21S
STATE COLLEGE  CLOUDY    27  19  74 CALM      30.23S
WILLIAMSPORT   CLOUDY    30  20  66 W5        30.26R
SELINSGROVE    CLOUDY    30  20  66 NW6       30.27R
FT INDIANTOWN  CLOUDY    30  18  61 N5        30.25S
CAPITAL CITY   CLOUDY    31  19  61 N8        30.26R
HARRISBURG     CLOUDY    31  19  61 N9        30.25R
YORK           MOCLDY    28  19  69 NW5       30.24S
$$

PAZ038>040-043-044-047-048-054-055-060>062-067>071-201200-
EASTERN PENNSYLVANIA

CITY           SKY/WX    TMP DP  RH WIND       PRES   REMARKS
SCRANTON       CLOUDY    29  20  69 NW3       30.22R
MOUNT POCONO   CLOUDY    24  18  77 NW8       30.14R
ALLENTOWN      CLOUDY    31  20  63 N6        30.25R
QUAKERTOWN*    CLOUDY    30  23  74 CALM      30.25R
READING        CLOUDY    32  19  58 N5        30.25R
LANCASTER      CLOUDY    31  20  63 N7        30.24R
COATESVILLE    CLOUDY    32  25  74 N5        30.22F
POTTSTOWN      CLOUDY    31  20  63 N8        30.26R
BLUE BELL      MOCLDY    32  27  80 CALM      30.24S
DOYLESTOWN     CLOUDY    29  21  72 N6        30.24R
WILLOW GROVE   NOT AVBL
NORTH PHILA    CLOUDY    33  21  61 N8        30.27R
PHILADELPHIA   CLOUDY    34  22  61 N10       30.26S
$$


USA.gov is the U.S. government's official web portal to all federal, state and local government web resources and services.